If you wish to contribute or participate in the discussions about articles you are invited to join SKYbrary as a registered user

GCGM

From SKYbrary Wiki
Revision as of 19:01, 28 November 2011 by Timo.Kouwenhoven (Talk | contribs)

(diff) ← Older revision | Latest revision (diff) | Newer revision → (diff)
Airport
ICAO: GCGM
Summary
Name La Gomera
Region Europe
Territory Canary Islands ES.gif
Location San Sebastián de la Gomera
Main city served
Coordinates 28° 1' 50.407", -17° 12' 45.0731"
More airports
in GC
GCLA, GCLP, GCRR, GCTS, GCXO
Runways
Designator Length Width Surface
9/27 1500 m4,921.26 ft 30 m98.425 ft ASP


METAR
Observation GCGM 211500Z 08004KT 350V160 9999 FEW030 21/07 Q1024 RMK CAB09 07006KT 030V110
Station La Gomera
Date/Time 21 December 2014 15:00:00
Wind direction 80°
Wind speed 04 kts
Lowest cloud amount few clouds
Temperature 21°C
Dew point 7°C
Humidity 40%
QNH 1024 hPa
Weather condition n/a


WX
Tag(s) Volcanic Ash

La Gomera Airport (IATA: GMZ) is an airport located near the village of Alajeró, Spain, 34 km18.359 nm
34,000 m
111,548.557 ft
southwest by road from the Gomera island's capital city, San Sebastián de la Gomera.